[Iaude] MPEC V45: 2016 VB1 [a=0.76,e=0.31,i=2.4,H=28.4]

mpec at si.edu mpec at si.edu
Sun Nov 6 17:13:49 EST 2016


M.P.E.C. 2016-V45                                Issued 2016 Nov. 6, 22:10 UT
 
     The Minor Planet Electronic Circulars contain information on unusual
         minor planets and routine data on comets.  They are published
    on behalf of Division F of the International Astronomical Union by the
          Minor Planet Center, Smithsonian Astrophysical Observatory,
                          Cambridge, MA 02138, U.S.A.

             Prepared using the Tamkin Foundation Computer Network

                              MPC at CFA.HARVARD.EDU
            URL http://www.minorplanetcenter.net/    ISSN 1523-6714


                                   2016 VB1
 
Observations:
     K16V01B* C2016 11 05.45293 08 30 25.18 +22 44 36.9          20.2 VqEV045G96
     K16V01B  C2016 11 05.45787 08 30 26.49 +22 46 25.6          20.2 VqEV045G96
     K16V01B  C2016 11 05.46216 08 30 27.73 +22 48 02.1          19.9 VqEV045G96
     K16V01B  C2016 11 05.46645 08 30 28.85 +22 49 37.2          20.6 VqEV045G96
     K16V01B  C2016 11 05.49966 08 30 37.15 +23 02 01.4          20.2 VqEV045I52
     K16V01B  C2016 11 05.50042 08 30 37.32 +23 02 18.9          19.9 VqEV045I52
     K16V01B  C2016 11 05.50118 08 30 37.52 +23 02 35.8          20.5 VqEV045I52
     K16V01B  C2016 11 05.50194 08 30 37.69 +23 02 53.2          20.4 VqEV045I52
     K16V01B  C2016 11 05.50590 08 30 38.64 +23 04 22.2          20.0 VqEV045G96
     K16V01B  C2016 11 05.50810 08 30 39.15 +23 05 11.0                qEV045G96
     K16V01B  C2016 11 05.52777 08 30 43.77 +23 12 35.2          20.6 VqEV045G96
     K16V01B  C2016 11 05.52818 08 30 43.82 +23 12 45.3          20.0 VqEV045G96
     K16V01B  C2016 11 05.52904 08 30 43.99 +23 13 04.2          20.8 VqEV045G96
     K16V01B  C2016 11 05.64566308 32 17.010+24 03 51.02         20.4 GUEV045T12
     K16V01B  C2016 11 05.64620608 32 17.138+24 04 04.81         20.2 GUEV045T12
     K16V01B  C2016 11 05.64664008 32 17.241+24 04 15.86         20.5 GUEV045T12
     K16V01B  C2016 11 05.64856008 32 17.701+24 05 04.52         20.3 GUEV045T12
     K16V01B  C2016 11 05.64905208 32 17.814+24 05 17.19         20.4 GUEV045T12
     K16V01B KC2016 11 06.11951308 41 18.76 +27 58 24.3                qEV045J95
     K16V01B KC2016 11 06.12351808 41 22.95 +28 01 11.6                qEV045J95
     K16V01B KC2016 11 06.12736108 41 27.04 +28 03 54.0                qEV045J95
     K16V01B KC2016 11 06.12971608 41 29.48 +28 05 33.5                qEV045J95
     K16V01B KC2016 11 06.13208208 41 31.94 +28 07 13.3          19.4 RqEV045J95
     K16V01B  C2016 11 06.38452 08 49 43.30 +31 31 48.6          19.7 RoEV045926
     K16V01B  C2016 11 06.38623 08 49 46.20 +31 33 30.1          19.8 RoEV045926
     K16V01B  C2016 11 06.38793 08 49 49.14 +31 35 12.1          19.5 RoEV045926
     K16V01B KC2016 11 06.45577908 50 49.13 +32 42 44.1          19.2 VuEV045H21
     K16V01B KC2016 11 06.45842208 50 53.27 +32 45 27.1          19.3 VuEV045H21
     K16V01B KC2016 11 06.46192008 50 58.78 +32 49 03.4          19.3 VuEV045H21
     K16V01B KC2016 11 06.46584708 51 04.95 +32 53 06.9          19.0 VuEV045H21
 
Observer details:
926 Tenagra II Observatory.  Observers M. Schwartz, P. R. Holvorcem.  Measurer
    M. Schwartz.  0.81-m f/7 Ritchey-Chretien + CCD.
G96 Mt. Lemmon Survey.  Observer A. R. Gibbs.  Measurers E. J. Christensen,
    D. C. Fuls, A. R. Gibbs, A. D. Grauer, J. A. Johnson, R. A. Kowalski,
    S. M. Larson, G. J. Leonard, R. G. Matheny, R. L. Seaman, F. C. Shelly.
    1.5-m reflector + 10K CCD.
H21 Astronomical Research Observatory, Westfield.  Observer R. Holmes.
    Measurers S. Foglia, L. Buzzi, T. Linder, R. Holmes.  0.76-m f/3.0
    astrograph + CCD.
I52 Steward Observatory, Mt. Lemmon Station.  Observer R. G. Matheny.
    Measurers E. J. Christensen, D. C. Fuls, A. R. Gibbs, A. D. Grauer,
    J. A. Johnson, R. A. Kowalski, S. M. Larson, G. J. Leonard, R. G. Matheny,
    R. L. Seaman, F. C. Shelly.  1.0-m reflector + CCD.
J95 Great Shefford.  Observer P. Birtwhistle.  0.40-m f/6.0 Schmidt-Cassegrain
    + CCD.
T12 Mauna Kea-UH/Tholen NEO Follow-Up (2.24-m).  Observer D. Fohring.
    Measurer D. J. Tholen.  2.24-m University of Hawaii reflector.
 
Orbital elements:
2016 VB1                                                 Earth MOID = 0.0005 AU
Epoch 2016 July 31.0 TT = JDT 2457600.5                 MPC
M  46.83342              (2000.0)            P               Q
n   1.49194311     Peri.  173.80886     -0.79956918     +0.59989865
a   0.7585215      Node    43.09605     -0.55278825     -0.71658966
e   0.3126478      Incl.    2.38851     -0.23476431     -0.35583826
P   0.66           H   28.4           G   0.15           U   6
Residuals in seconds of arc
161105 G96  0.2-  1.3+    161105 G96  0.4+  0.4-    161106 J95  0.2+  0.1+
161105 G96  0.9-  0.0     161105 G96  0.3-  0.4+    161106 J95  0.4-  0.2+
161105 G96  0.1+  0.8+    161105 G96  0.7-  0.1-    161106 J95  0.9-  0.1-
161105 G96  0.2-  0.1+    161105 T12  0.1-  0.0     161106 926  0.2+  0.6+
161105 I52  0.1-  0.4-    161105 T12  0.1-  0.0     161106 926  0.4-  0.1+
161105 I52  0.3-  0.0     161105 T12  0.1-  0.0     161106 926  0.2-  0.6+
161105 I52  0.0   0.2-    161105 T12  0.1-  0.1-    161106 H21  0.4-  0.5-
161105 I52  0.1-  0.1+    161105 T12  0.1-  0.1+    161106 H21  0.4-  0.4-
161105 G96  0.0   0.0     161106 J95  0.7+  0.2+    161106 H21  0.2-  0.2-
161105 G96  0.1-  0.8-    161106 J95  0.1-  0.6-    161106 H21  0.5-  0.0

Ephemeris:
2016 VB1                 a,e,i = 0.76, 0.31, 2                   Q = 0.9957
Date    TT    R. A. (2000) Decl.     Delta      r     Elong.  Phase     V
2016 10 07    08 07 47.5 +10 01 56   0.09534 0.9746    72.3   102.4    27.0
...
2016 10 22    08 07 49.4 +11 02 39   0.05218 0.9939    87.1    89.9    25.1
...
2016 10 30    08 11 33.9 +12 45 12   0.02752 0.9956    94.5    83.9    23.5
...
2016 11 05    08 25 40.3 +20 35 18   0.0087100.9929    99.0    80.5    20.9
2016 11 06    08 37 50.7 +26 56 26   0.0056330.9921    98.8    80.9    20.0
2016 11 07    09 29 40.1 +46 29 37   0.0027920.9912    95.0    84.8    18.6
...
2016 11 13    20 04 36.6 -08 24 19   0.01705 0.9841    71.1   107.9    23.6
...
2016 11 21    20 08 12.6 -12 03 21   0.04203 0.9695    63.0   114.8    25.9
...
2016 12 06    20 00 54.1 -14 01 24   0.08836 0.9258    45.7   130.4    28.7

A. U. Tomatic                (C) Copyright 2016 MPC           M.P.E.C. 2016-V45




More information about the Iaude mailing list